DW0723 Weather Reports


time (UTC)temp
C
wind
direction
speed
KPH
gust
KPH
rain 1hr
cm
rain 24hr
cm
rain mn
cm
humidity
%
barometer
mb
20260906162737 21 11 0.0 9.7 0.00 0.00 0.00 85 1019.5
20260906155736 20 360 3.2 14.5 0.00 0.00 0.00 89 1019.4
20260906152736 20 28 0.0 11.3 0.00 0.00 0.00 91 1019.2
20260906145736 18 39 4.8 11.3 0.00 0.00 0.00 91 1019.2
20260906142735 18 25 0.0 9.7 0.00 0.00 0.00 91 1019.0
20260906135735 17 37 6.4 9.7 0.00 0.00 0.00 91 1019.0
20260906132735 17 28 6.4 8.0 0.00 0.00 0.00 92 1019.4
20260906125734 16 26 6.4 8.0 0.00 0.00 0.00 91 1019.0
20260906122734 16 15 0.0 4.8 0.00 0.00 0.00 91 1018.6
20260906115733 16 5 4.8 6.4 0.00 0.00 0.00 91 1018.6
20260906112733 16 42 0.0 4.8 0.00 0.00 0.00 91 1018.2
20260906102732 16 18 0.0 6.4 0.00 0.00 0.00 91 1017.8
20260906082731 16 13 0.0 0.0 0.00 0.00 0.00 90 1017.5
20260906075800 16 13 0.0 0.0 0.00 0.00 0.00 90 1017.4
20260906072730 16 13 0.0 0.0 0.00 0.00 0.00 90 1017.6
20260906062729 16 13 0.0 0.0 0.00 0.00 0.00 89 1017.2
20260906055758 17 13 0.0 0.0 0.00 0.00 0.00 89 1017.0
20260906052758 17 13 0.0 0.0 0.00 0.00 0.00 88 1016.9
20260906045758 18 13 0.0 0.0 0.00 0.00 0.00 88 1017.0
20260906042756 18 13 0.0 0.0 0.00 0.00 0.00 88 1016.6
20260906035757 18 13 0.0 0.0 0.00 0.00 0.00 88 1016.2
20260906025756 20 13 0.0 0.0 0.00 0.00 0.00 88 1016.2
20260906022756 20 13 0.0 4.8 0.00 0.00 0.00 88 1015.9
20260906015756 20 13 0.0 1.6 0.00 0.00 0.00 86 1015.8
20260906012755 21 13 0.0 0.0 0.00 0.00 0.00 84 1015.4
20260906005755 21 13 0.0 0.0 0.00 0.03 0.00 83 1015.3
20260906002754 22 13 0.0 0.0 0.00 0.03 0.00 82 1015.3
20260905235754 22 13 0.0 4.8 0.00 0.03 0.00 81 1015.5
20260905232754 22 11 0.0 6.4 0.00 0.03 0.00 81 1015.5
20260905225755 22 37 1.6 8.0 0.00 0.03 0.00 83 1015.4
20260905222753 22 350 0.0 6.4 0.00 0.03 0.00 82 1015.3
20260905215753 22 327 0.0 11.3 0.00 0.03 0.00 83 1015.3
20260905212752 21 10 1.6 9.7 0.00 0.03 0.00 85 1015.3
20260905205752 21 9 4.8 11.3 0.00 0.03 0.00 86 1015.8
20260905195751 21 28 6.4 12.9 0.00 0.03 0.00 87 1015.9
20260905192750 21 48 0.0 9.7 0.00 0.03 0.00 87 1015.9
20260905185750 21 21 4.8 11.3 0.00 0.03 0.00 87 1015.7
20260905182750 21 36 0.0 14.5 0.00 0.03 0.00 87 1015.9
20260905172749 21 35 1.6 17.7 0.00 0.03 0.00 88 1016.0
20260905165749 21 46 3.2 17.7 0.00 0.03 0.00 88 1015.9